Weather History for KATP - December, 2013

Change the Weather History Date:

Saturday, December 28, 2013

  Actual Average Record
Temperature  
Mean Temperature 66 °F -  
Max Temperature 68 °F - - ()
Min Temperature 64 °F - - ()
Cooling Degree Days 1    
Growing Degree Days 16 (Base 50)    
Moisture  
Dew Point 62 °F    
Average Humidity 85    
Maximum Humidity 94    
Minimum Humidity 73    
Precipitation  
Precipitation 0.00 in - - ()
Sea Level Pressure  
Sea Level Pressure 30.08 in    
Wind  
Wind Speed 23 mph (NNW)    
Max Wind Speed 32 mph    
Max Gust Speed 36 mph    
Visibility 5 miles    
Events Fog    
T = Trace of Precipitation, MM = Missing Value Source: NWS Daily Summary

Daily Weather History Graph

Daily Weather History Graph

Search for Another Location

Airport or City:

Trip Planner

Search our weather history database for the weather conditions in past years. The results will help you decide how hot, cold, wet, or windy it might be!

Date:

Astronomy

Dec. 28, 2013 Rise Set
Actual Time 6:48 AM CST 5:15 PM CST
Civil Twilight 6:23 AM CST 5:40 PM CST
Nautical Twilight 5:54 AM CST 6:09 PM CST
Astronomical Twilight 5:25 AM CST 6:38 PM CST
Moon 2:37 AM CST (12/28) 1:56 PM CST (12/28)
Length of Visible Light 11h 17m
Length of Day
10h 26m
Waning Crescent, 19% of the Moon is Illuminated
Dec 28
Waning Crescent
Jan 1
New
Jan 7
First Quarter
Jan 15
Full
Jan 23
Last Quarter

Hourly Weather History & Observations

Time (CST) Temp. Dew Point Humidity Pressure Visibility Wind Dir Wind Speed Gust Speed Precip Events Conditions
12:15 AM 66.2 °F 64.4 °F 94% 30.19 in 2.0 mi North 21.9 mph - N/A   Overcast
12:35 AM 66.2 °F 64.4 °F 94% 30.17 in 0.5 mi North 25.3 mph - N/A   Overcast
12:55 AM 66.2 °F 64.4 °F 94% 30.17 in 1.5 mi North 25.3 mph - N/A   Overcast
1:15 AM 66.2 °F 64.4 °F 94% 30.16 in 0.8 mi North 26.5 mph - N/A   Overcast
1:35 AM 66.2 °F 64.4 °F 94% 30.14 in 1.5 mi North 27.6 mph - N/A   Overcast
1:55 AM 66.2 °F 64.4 °F 94% 30.13 in 1.5 mi North 26.5 mph - N/A   Overcast
2:15 AM 66.2 °F 64.4 °F 94% 30.13 in 1.8 mi North 21.9 mph 32.2 mph N/A   Overcast
2:35 AM 66.2 °F 64.4 °F 94% 30.11 in 3.0 mi North 27.6 mph - N/A   Overcast
2:55 AM 66.2 °F 64.4 °F 94% 30.10 in 4.0 mi NNW 31.1 mph - N/A   Overcast
3:15 AM 66.2 °F 64.4 °F 94% 30.09 in 1.0 mi North 29.9 mph - N/A   Overcast
3:35 AM 66.2 °F 64.4 °F 94% 30.09 in 1.5 mi NNW 31.1 mph - N/A   Overcast
3:55 AM 66.2 °F 62.6 °F 88% 30.08 in 4.0 mi NNW 32.2 mph - N/A   Overcast
4:15 AM 64.4 °F 62.6 °F 94% 30.08 in 1.0 mi NNW 28.8 mph 35.7 mph N/A   Overcast
4:35 AM 64.4 °F 62.6 °F 94% 30.08 in 2.0 mi NNW 28.8 mph - N/A   Overcast
4:55 AM 66.2 °F 62.6 °F 88% 30.07 in 0.5 mi NNW 31.1 mph - N/A Fog Fog
5:15 AM 66.2 °F 62.6 °F 88% 30.08 in 2.5 mi NNW 31.1 mph - N/A   Overcast
5:35 AM 66.2 °F 62.6 °F 88% 30.09 in 1.0 mi NNW 29.9 mph - N/A   Overcast
5:55 AM 64.4 °F 62.6 °F 94% 30.09 in 1.8 mi NNW 28.8 mph - N/A   Overcast
6:15 AM 66.2 °F 62.6 °F 88% 30.09 in 4.0 mi NNW 28.8 mph - N/A   Overcast
6:35 AM 66.2 °F 62.6 °F 88% 30.09 in 3.0 mi North 27.6 mph - N/A   Overcast
6:55 AM 66.2 °F 62.6 °F 88% 30.09 in 5.0 mi NNW 25.3 mph - N/A   Overcast
7:15 AM 66.2 °F 62.6 °F 88% 30.10 in 4.0 mi NNW 26.5 mph - N/A   Overcast
7:35 AM 66.2 °F 62.6 °F 88% 30.10 in 5.0 mi NNW 24.2 mph - N/A   Overcast
7:55 AM 66.2 °F 62.6 °F 88% 30.12 in 3.0 mi NNW 21.9 mph - N/A   Overcast
8:15 AM 66.2 °F 64.4 °F 94% 30.12 in 5.0 mi NNW 20.7 mph - N/A   Overcast
8:35 AM 66.2 °F 62.6 °F 88% 30.12 in 2.5 mi NNW 20.7 mph - N/A   Overcast
8:55 AM 66.2 °F 62.6 °F 88% 30.12 in 4.0 mi NW 23.0 mph - N/A   Overcast
9:15 AM 66.2 °F 62.6 °F 88% 30.12 in 6.0 mi NW 24.2 mph - N/A   Overcast
9:35 AM 66.2 °F 62.6 °F 88% 30.13 in 6.0 mi NW 25.3 mph - N/A   Haze
9:55 AM 66.2 °F 62.6 °F 88% 30.13 in 6.0 mi NW 25.3 mph - N/A   Haze
10:15 AM 66.2 °F 62.6 °F 88% 30.11 in 6.0 mi NW 27.6 mph - N/A   Haze
10:35 AM 66.2 °F 62.6 °F 88% 30.10 in 7.0 mi NNW 26.5 mph - N/A   Mostly Cloudy
10:55 AM 66.2 °F 62.6 °F 88% 30.10 in 7.0 mi NNW 23.0 mph - N/A   Overcast
11:15 AM 68.0 °F 62.6 °F 83% 30.09 in 7.0 mi NNW 21.9 mph - N/A   Overcast
11:35 AM 66.2 °F 60.8 °F 83% 30.09 in 7.0 mi NNW 23.0 mph - N/A   Overcast
11:55 AM 66.2 °F 60.8 °F 83% 30.07 in 7.0 mi NNW 20.7 mph - N/A   Overcast
12:15 PM 66.2 °F 62.6 °F 88% 30.06 in 7.0 mi NNW 20.7 mph - N/A   Overcast
12:35 PM 66.2 °F 60.8 °F 83% 30.05 in 8.0 mi NNW 19.6 mph - N/A   Overcast
12:55 PM 66.2 °F 60.8 °F 83% 30.04 in 7.0 mi NNW 21.9 mph - N/A   Overcast
1:15 PM 66.2 °F 60.8 °F 83% 30.04 in 8.0 mi NNW 19.6 mph - N/A   Overcast
1:35 PM 66.2 °F 60.8 °F 83% 30.03 in 8.0 mi NNW 18.4 mph - N/A   Overcast
1:55 PM 66.2 °F 60.8 °F 83% 30.03 in 8.0 mi NNW 17.3 mph - N/A   Overcast
2:15 PM 66.2 °F 60.8 °F 83% 30.04 in 7.0 mi NNW 16.1 mph - N/A   Overcast
2:35 PM 66.2 °F 60.8 °F 83% 30.04 in 6.0 mi NW 18.4 mph - N/A   Haze
2:55 PM 66.2 °F 60.8 °F 83% 30.04 in 4.0 mi NW 17.3 mph - N/A   Haze
3:15 PM 64.4 °F 60.8 °F 88% 30.03 in 4.0 mi NW 18.4 mph - N/A   Haze
3:35 PM 66.2 °F 60.8 °F 83% 30.04 in 6.0 mi NW 17.3 mph - N/A   Haze
3:55 PM 66.2 °F 60.8 °F 83% 30.04 in 7.0 mi NW 18.4 mph - N/A   Overcast
4:15 PM 66.2 °F 60.8 °F 83% 30.04 in 7.0 mi NW 17.3 mph 23.0 mph N/A   Overcast
4:35 PM 66.2 °F 60.8 °F 83% 30.04 in 6.0 mi NW 19.6 mph - N/A   Haze
4:55 PM 66.2 °F 60.8 °F 83% 30.04 in 6.0 mi NW 17.3 mph - N/A   Haze
5:15 PM 66.2 °F 60.8 °F 83% 30.04 in 6.0 mi NW 19.6 mph - N/A   Haze
5:35 PM 68.0 °F 60.8 °F 78% 30.04 in 6.0 mi NW 18.4 mph - N/A   Haze
5:55 PM 68.0 °F 60.8 °F 78% 30.04 in 6.0 mi NW 18.4 mph - N/A   Haze
6:15 PM 68.0 °F 60.8 °F 78% 30.05 in 6.0 mi NW 18.4 mph - N/A   Haze
6:35 PM 66.2 °F 60.8 °F 83% 30.05 in 9.0 mi NNW 12.7 mph - N/A   Overcast
6:55 PM 68.0 °F 60.8 °F 78% 30.05 in 9.0 mi NNW 13.8 mph - N/A   Overcast
7:15 PM 66.2 °F 60.8 °F 83% 30.06 in 9.0 mi NNW 12.7 mph - N/A   Overcast
7:35 PM 66.2 °F 60.8 °F 83% 30.06 in 9.0 mi NNW 11.5 mph - N/A   Overcast
7:55 PM 66.2 °F 60.8 °F 83% 30.06 in 8.0 mi NNW 12.7 mph - N/A   Overcast
8:15 PM 68.0 °F 60.8 °F 78% 30.06 in 6.0 mi NW 12.7 mph - N/A   Haze
8:35 PM 68.0 °F 60.8 °F 78% 30.07 in 6.0 mi NW 12.7 mph - N/A   Haze
8:55 PM 68.0 °F 60.8 °F 78% 30.07 in 6.0 mi WNW 16.1 mph - N/A   Haze
9:15 PM 68.0 °F 60.8 °F 78% 30.07 in 7.0 mi NW 13.8 mph - N/A   Overcast
9:35 PM 68.0 °F 60.8 °F 78% 30.07 in 6.0 mi WNW 16.1 mph - N/A   Haze
9:55 PM 68.0 °F 60.8 °F 78% 30.07 in 6.0 mi NW 12.7 mph - N/A   Haze
10:15 PM 68.0 °F 60.8 °F 78% 30.07 in 6.0 mi NW 13.8 mph - N/A   Haze
10:35 PM 68.0 °F 60.8 °F 78% 30.07 in 7.0 mi WNW 17.3 mph - N/A   Overcast
10:55 PM 68.0 °F 60.8 °F 78% 30.06 in 7.0 mi NW 13.8 mph - N/A   Overcast
11:15 PM 68.0 °F 60.8 °F 78% 30.05 in 6.0 mi NW 9.2 mph 15.0 mph N/A   Haze
11:35 PM 68.0 °F 59.0 °F 73% 30.05 in 6.0 mi NW 9.2 mph - N/A   Haze
11:55 PM 68.0 °F 60.8 °F 78% 30.07 in 7.0 mi WNW 15.0 mph - N/A   Overcast